Index of /20260503/WXO-DD/model_rdps/10km/06/055
Name Last modified Size Description
Parent Directory -
20260503T06Z_MSC_RDPS_AbsoluteVorticity_IsbL-0250_RLatLon0.09_PT055H.grib2 2026-05-03 09:00 730K
20260503T06Z_MSC_RDPS_AbsoluteVorticity_IsbL-0500_RLatLon0.09_PT055H.grib2 2026-05-03 09:00 568K
20260503T06Z_MSC_RDPS_AbsoluteVorticity_IsbL-0700_RLatLon0.09_PT055H.grib2 2026-05-03 09:00 611K
20260503T06Z_MSC_RDPS_AbsoluteVorticity_IsbL-0850_RLatLon0.09_PT055H.grib2 2026-05-03 09:00 798K
20260503T06Z_MSC_RDPS_AirTemp_AGL-120m_RLatLon0.09_PT055H.grib2 2026-05-03 09:00 382K
20260503T06Z_MSC_RDPS_AirTemp_AGL-2m_RLatLon0.09_PT055H.grib2 2026-05-03 09:00 628K
20260503T06Z_MSC_RDPS_AirTemp_AGL-40m_RLatLon0.09_PT055H.grib2 2026-05-03 09:00 396K
20260503T06Z_MSC_RDPS_AirTemp_AGL-80m_RLatLon0.09_PT055H.grib2 2026-05-03 09:00 388K
20260503T06Z_MSC_RDPS_AirTemp_IsbL-0001_RLatLon0.09_PT055H.grib2 2026-05-03 09:00 316K
20260503T06Z_MSC_RDPS_AirTemp_IsbL-0005_RLatLon0.09_PT055H.grib2 2026-05-03 09:00 292K
20260503T06Z_MSC_RDPS_AirTemp_IsbL-0010_RLatLon0.09_PT055H.grib2 2026-05-03 09:00 394K
20260503T06Z_MSC_RDPS_AirTemp_IsbL-0020_RLatLon0.09_PT055H.grib2 2026-05-03 09:00 417K
20260503T06Z_MSC_RDPS_AirTemp_IsbL-0030_RLatLon0.09_PT055H.grib2 2026-05-03 09:00 341K
20260503T06Z_MSC_RDPS_AirTemp_IsbL-0050_RLatLon0.09_PT055H.grib2 2026-05-03 09:00 320K
20260503T06Z_MSC_RDPS_AirTemp_IsbL-0100_RLatLon0.09_PT055H.grib2 2026-05-03 09:00 431K
20260503T06Z_MSC_RDPS_AirTemp_IsbL-0150_RLatLon0.09_PT055H.grib2 2026-05-03 09:00 419K
20260503T06Z_MSC_RDPS_AirTemp_IsbL-0175_RLatLon0.09_PT055H.grib2 2026-05-03 09:00 409K
20260503T06Z_MSC_RDPS_AirTemp_IsbL-0200_RLatLon0.09_PT055H.grib2 2026-05-03 09:00 412K
20260503T06Z_MSC_RDPS_AirTemp_IsbL-0225_RLatLon0.09_PT055H.grib2 2026-05-03 09:00 412K
20260503T06Z_MSC_RDPS_AirTemp_IsbL-0250_RLatLon0.09_PT055H.grib2 2026-05-03 09:00 418K
20260503T06Z_MSC_RDPS_AirTemp_IsbL-0275_RLatLon0.09_PT055H.grib2 2026-05-03 09:00 402K
20260503T06Z_MSC_RDPS_AirTemp_IsbL-0300_RLatLon0.09_PT055H.grib2 2026-05-03 09:00 411K
20260503T06Z_MSC_RDPS_AirTemp_IsbL-0350_RLatLon0.09_PT055H.grib2 2026-05-03 09:00 426K
20260503T06Z_MSC_RDPS_AirTemp_IsbL-0400_RLatLon0.09_PT055H.grib2 2026-05-03 09:00 430K
20260503T06Z_MSC_RDPS_AirTemp_IsbL-0450_RLatLon0.09_PT055H.grib2 2026-05-03 09:00 438K
20260503T06Z_MSC_RDPS_AirTemp_IsbL-0500_RLatLon0.09_PT055H.grib2 2026-05-03 09:00 447K
20260503T06Z_MSC_RDPS_AirTemp_IsbL-0550_RLatLon0.09_PT055H.grib2 2026-05-03 09:00 464K
20260503T06Z_MSC_RDPS_AirTemp_IsbL-0600_RLatLon0.09_PT055H.grib2 2026-05-03 09:00 481K
20260503T06Z_MSC_RDPS_AirTemp_IsbL-0650_RLatLon0.09_PT055H.grib2 2026-05-03 09:00 460K
20260503T06Z_MSC_RDPS_AirTemp_IsbL-0700_RLatLon0.09_PT055H.grib2 2026-05-03 09:00 485K
20260503T06Z_MSC_RDPS_AirTemp_IsbL-0750_RLatLon0.09_PT055H.grib2 2026-05-03 09:00 526K
20260503T06Z_MSC_RDPS_AirTemp_IsbL-0800_RLatLon0.09_PT055H.grib2 2026-05-03 09:00 586K
20260503T06Z_MSC_RDPS_AirTemp_IsbL-0850_RLatLon0.09_PT055H.grib2 2026-05-03 09:00 648K
20260503T06Z_MSC_RDPS_AirTemp_IsbL-0875_RLatLon0.09_PT055H.grib2 2026-05-03 09:00 668K
20260503T06Z_MSC_RDPS_AirTemp_IsbL-0900_RLatLon0.09_PT055H.grib2 2026-05-03 09:00 543K
20260503T06Z_MSC_RDPS_AirTemp_IsbL-0925_RLatLon0.09_PT055H.grib2 2026-05-03 09:00 668K
20260503T06Z_MSC_RDPS_AirTemp_IsbL-0950_RLatLon0.09_PT055H.grib2 2026-05-03 09:00 663K
20260503T06Z_MSC_RDPS_AirTemp_IsbL-0970_RLatLon0.09_PT055H.grib2 2026-05-03 09:00 522K
20260503T06Z_MSC_RDPS_AirTemp_IsbL-0985_RLatLon0.09_PT055H.grib2 2026-05-03 09:00 512K
20260503T06Z_MSC_RDPS_AirTemp_IsbL-1000_RLatLon0.09_PT055H.grib2 2026-05-03 09:00 500K
20260503T06Z_MSC_RDPS_AirTemp_IsbL-1015_RLatLon0.09_PT055H.grib2 2026-05-03 09:00 506K
20260503T06Z_MSC_RDPS_Albedo_Sfc_RLatLon0.09_PT055H.grib2 2026-05-03 09:00 153K
20260503T06Z_MSC_RDPS_CAPE_Sfc_RLatLon0.09_PT055H.grib2 2026-05-03 09:00 1.7M
20260503T06Z_MSC_RDPS_CIN_Sfc_RLatLon0.09_PT055H.grib2 2026-05-03 09:00 1.1M
20260503T06Z_MSC_RDPS_CloudWater_EAtm_RLatLon0.09_PT055H.grib2 2026-05-03 09:00 223K
20260503T06Z_MSC_RDPS_ConvectivePrecip-Accum_Sfc_RLatLon0.09_PT055H.grib2 2026-05-03 09:00 1.1M
20260503T06Z_MSC_RDPS_DewPointDepression_AGL-2m_RLatLon0.09_PT055H.grib2 2026-05-03 09:00 411K
20260503T06Z_MSC_RDPS_DewPointDepression_IsbL-0001_RLatLon0.09_PT055H.grib2 2026-05-03 09:00 193
20260503T06Z_MSC_RDPS_DewPointDepression_IsbL-0005_RLatLon0.09_PT055H.grib2 2026-05-03 09:00 193
20260503T06Z_MSC_RDPS_DewPointDepression_IsbL-0010_RLatLon0.09_PT055H.grib2 2026-05-03 09:00 193
20260503T06Z_MSC_RDPS_DewPointDepression_IsbL-0020_RLatLon0.09_PT055H.grib2 2026-05-03 09:00 193
20260503T06Z_MSC_RDPS_DewPointDepression_IsbL-0030_RLatLon0.09_PT055H.grib2 2026-05-03 09:00 193
20260503T06Z_MSC_RDPS_DewPointDepression_IsbL-0050_RLatLon0.09_PT055H.grib2 2026-05-03 09:00 107K
20260503T06Z_MSC_RDPS_DewPointDepression_IsbL-0100_RLatLon0.09_PT055H.grib2 2026-05-03 09:00 115K
20260503T06Z_MSC_RDPS_DewPointDepression_IsbL-0150_RLatLon0.09_PT055H.grib2 2026-05-03 09:00 143K
20260503T06Z_MSC_RDPS_DewPointDepression_IsbL-0175_RLatLon0.09_PT055H.grib2 2026-05-03 09:00 177K
20260503T06Z_MSC_RDPS_DewPointDepression_IsbL-0200_RLatLon0.09_PT055H.grib2 2026-05-03 09:00 216K
20260503T06Z_MSC_RDPS_DewPointDepression_IsbL-0225_RLatLon0.09_PT055H.grib2 2026-05-03 09:00 252K
20260503T06Z_MSC_RDPS_DewPointDepression_IsbL-0250_RLatLon0.09_PT055H.grib2 2026-05-03 09:00 291K
20260503T06Z_MSC_RDPS_DewPointDepression_IsbL-0275_RLatLon0.09_PT055H.grib2 2026-05-03 09:00 303K
20260503T06Z_MSC_RDPS_DewPointDepression_IsbL-0300_RLatLon0.09_PT055H.grib2 2026-05-03 09:00 322K
20260503T06Z_MSC_RDPS_DewPointDepression_IsbL-0350_RLatLon0.09_PT055H.grib2 2026-05-03 09:00 329K
20260503T06Z_MSC_RDPS_DewPointDepression_IsbL-0400_RLatLon0.09_PT055H.grib2 2026-05-03 09:00 338K
20260503T06Z_MSC_RDPS_DewPointDepression_IsbL-0450_RLatLon0.09_PT055H.grib2 2026-05-03 09:00 342K
20260503T06Z_MSC_RDPS_DewPointDepression_IsbL-0500_RLatLon0.09_PT055H.grib2 2026-05-03 09:00 347K
20260503T06Z_MSC_RDPS_DewPointDepression_IsbL-0550_RLatLon0.09_PT055H.grib2 2026-05-03 09:00 358K
20260503T06Z_MSC_RDPS_DewPointDepression_IsbL-0600_RLatLon0.09_PT055H.grib2 2026-05-03 09:00 366K
20260503T06Z_MSC_RDPS_DewPointDepression_IsbL-0650_RLatLon0.09_PT055H.grib2 2026-05-03 09:00 371K
20260503T06Z_MSC_RDPS_DewPointDepression_IsbL-0700_RLatLon0.09_PT055H.grib2 2026-05-03 09:00 383K
20260503T06Z_MSC_RDPS_DewPointDepression_IsbL-0750_RLatLon0.09_PT055H.grib2 2026-05-03 09:00 403K
20260503T06Z_MSC_RDPS_DewPointDepression_IsbL-0800_RLatLon0.09_PT055H.grib2 2026-05-03 09:00 441K
20260503T06Z_MSC_RDPS_DewPointDepression_IsbL-0850_RLatLon0.09_PT055H.grib2 2026-05-03 09:00 477K
20260503T06Z_MSC_RDPS_DewPointDepression_IsbL-0875_RLatLon0.09_PT055H.grib2 2026-05-03 09:00 476K
20260503T06Z_MSC_RDPS_DewPointDepression_IsbL-0900_RLatLon0.09_PT055H.grib2 2026-05-03 09:00 465K
20260503T06Z_MSC_RDPS_DewPointDepression_IsbL-0925_RLatLon0.09_PT055H.grib2 2026-05-03 09:00 449K
20260503T06Z_MSC_RDPS_DewPointDepression_IsbL-0950_RLatLon0.09_PT055H.grib2 2026-05-03 09:00 442K
20260503T06Z_MSC_RDPS_DewPointDepression_IsbL-0970_RLatLon0.09_PT055H.grib2 2026-05-03 09:00 440K
20260503T06Z_MSC_RDPS_DewPointDepression_IsbL-0985_RLatLon0.09_PT055H.grib2 2026-05-03 09:00 438K
20260503T06Z_MSC_RDPS_DewPointDepression_IsbL-1000_RLatLon0.09_PT055H.grib2 2026-05-03 09:00 435K
20260503T06Z_MSC_RDPS_DewPointDepression_IsbL-1015_RLatLon0.09_PT055H.grib2 2026-05-03 09:00 428K
20260503T06Z_MSC_RDPS_DewPoint_AGL-2m_RLatLon0.09_PT055H.grib2 2026-05-03 09:00 398K
20260503T06Z_MSC_RDPS_DownwardLongwaveRadiationFlux-Accum_Sfc_RLatLon0.09_PT055H.grib2 2026-05-03 09:00 387K
20260503T06Z_MSC_RDPS_DownwardShortwaveRadiationFlux-Accum_NTAtm_RLatLon0.09_PT055H.grib2 2026-05-03 09:00 142K
20260503T06Z_MSC_RDPS_DownwardShortwaveRadiationFlux-Accum_Sfc_RLatLon0.09_PT055H.grib2 2026-05-03 09:00 578K
20260503T06Z_MSC_RDPS_FreezingRain-Accum1h_Sfc_RLatLon0.09_PT055H.grib2 2026-05-03 09:00 52K
20260503T06Z_MSC_RDPS_FreezingRain-Accum_Sfc_RLatLon0.09_PT055H.grib2 2026-05-03 09:00 184K
20260503T06Z_MSC_RDPS_GeopotentialHeight_IsbL-0001_RLatLon0.09_PT055H.grib2 2026-05-03 09:00 351K
20260503T06Z_MSC_RDPS_GeopotentialHeight_IsbL-0005_RLatLon0.09_PT055H.grib2 2026-05-03 09:00 313K
20260503T06Z_MSC_RDPS_GeopotentialHeight_IsbL-0010_RLatLon0.09_PT055H.grib2 2026-05-03 09:00 313K
20260503T06Z_MSC_RDPS_GeopotentialHeight_IsbL-0020_RLatLon0.09_PT055H.grib2 2026-05-03 09:00 411K
20260503T06Z_MSC_RDPS_GeopotentialHeight_IsbL-0030_RLatLon0.09_PT055H.grib2 2026-05-03 09:00 413K
20260503T06Z_MSC_RDPS_GeopotentialHeight_IsbL-0050_RLatLon0.09_PT055H.grib2 2026-05-03 09:00 316K
20260503T06Z_MSC_RDPS_GeopotentialHeight_IsbL-0100_RLatLon0.09_PT055H.grib2 2026-05-03 09:00 289K
20260503T06Z_MSC_RDPS_GeopotentialHeight_IsbL-0150_RLatLon0.09_PT055H.grib2 2026-05-03 09:00 231K
20260503T06Z_MSC_RDPS_GeopotentialHeight_IsbL-0175_RLatLon0.09_PT055H.grib2 2026-05-03 09:00 233K
20260503T06Z_MSC_RDPS_GeopotentialHeight_IsbL-0200_RLatLon0.09_PT055H.grib2 2026-05-03 09:00 236K
20260503T06Z_MSC_RDPS_GeopotentialHeight_IsbL-0225_RLatLon0.09_PT055H.grib2 2026-05-03 09:00 238K
20260503T06Z_MSC_RDPS_GeopotentialHeight_IsbL-0250_RLatLon0.09_PT055H.grib2 2026-05-03 09:00 239K
20260503T06Z_MSC_RDPS_GeopotentialHeight_IsbL-0275_RLatLon0.09_PT055H.grib2 2026-05-03 09:00 237K
20260503T06Z_MSC_RDPS_GeopotentialHeight_IsbL-0300_RLatLon0.09_PT055H.grib2 2026-05-03 09:00 237K
20260503T06Z_MSC_RDPS_GeopotentialHeight_IsbL-0350_RLatLon0.09_PT055H.grib2 2026-05-03 09:00 233K
20260503T06Z_MSC_RDPS_GeopotentialHeight_IsbL-0400_RLatLon0.09_PT055H.grib2 2026-05-03 09:00 230K
20260503T06Z_MSC_RDPS_GeopotentialHeight_IsbL-0450_RLatLon0.09_PT055H.grib2 2026-05-03 09:00 301K
20260503T06Z_MSC_RDPS_GeopotentialHeight_IsbL-0500_RLatLon0.09_PT055H.grib2 2026-05-03 09:00 297K
20260503T06Z_MSC_RDPS_GeopotentialHeight_IsbL-0550_RLatLon0.09_PT055H.grib2 2026-05-03 09:00 293K
20260503T06Z_MSC_RDPS_GeopotentialHeight_IsbL-0600_RLatLon0.09_PT055H.grib2 2026-05-03 09:00 288K
20260503T06Z_MSC_RDPS_GeopotentialHeight_IsbL-0650_RLatLon0.09_PT055H.grib2 2026-05-03 09:00 259K
20260503T06Z_MSC_RDPS_GeopotentialHeight_IsbL-0700_RLatLon0.09_PT055H.grib2 2026-05-03 09:00 258K
20260503T06Z_MSC_RDPS_GeopotentialHeight_IsbL-0750_RLatLon0.09_PT055H.grib2 2026-05-03 09:00 261K
20260503T06Z_MSC_RDPS_GeopotentialHeight_IsbL-0800_RLatLon0.09_PT055H.grib2 2026-05-03 09:00 355K
20260503T06Z_MSC_RDPS_GeopotentialHeight_IsbL-0850_RLatLon0.09_PT055H.grib2 2026-05-03 09:00 366K
20260503T06Z_MSC_RDPS_GeopotentialHeight_IsbL-0875_RLatLon0.09_PT055H.grib2 2026-05-03 09:00 370K
20260503T06Z_MSC_RDPS_GeopotentialHeight_IsbL-0900_RLatLon0.09_PT055H.grib2 2026-05-03 09:00 282K
20260503T06Z_MSC_RDPS_GeopotentialHeight_IsbL-0925_RLatLon0.09_PT055H.grib2 2026-05-03 09:00 284K
20260503T06Z_MSC_RDPS_GeopotentialHeight_IsbL-0950_RLatLon0.09_PT055H.grib2 2026-05-03 09:00 287K
20260503T06Z_MSC_RDPS_GeopotentialHeight_IsbL-0970_RLatLon0.09_PT055H.grib2 2026-05-03 09:00 290K
20260503T06Z_MSC_RDPS_GeopotentialHeight_IsbL-0985_RLatLon0.09_PT055H.grib2 2026-05-03 09:00 296K
20260503T06Z_MSC_RDPS_GeopotentialHeight_IsbL-1000_RLatLon0.09_PT055H.grib2 2026-05-03 09:00 305K
20260503T06Z_MSC_RDPS_GeopotentialHeight_IsbL-1015_RLatLon0.09_PT055H.grib2 2026-05-03 09:00 317K
20260503T06Z_MSC_RDPS_Humidex_Sfc_RLatLon0.09_PT055H.grib2 2026-05-03 09:00 2.4M
20260503T06Z_MSC_RDPS_IcePellets-Accum1h_Sfc_RLatLon0.09_PT055H.grib2 2026-05-03 09:00 11K
20260503T06Z_MSC_RDPS_IcePellets-Accum_Sfc_RLatLon0.09_PT055H.grib2 2026-05-03 09:00 32K
20260503T06Z_MSC_RDPS_KIndex_Sfc_RLatLon0.09_PT055H.grib2 2026-05-03 09:00 2.5M
20260503T06Z_MSC_RDPS_LatentHeatNetFlux_Sfc_RLatLon0.09_PT055H.grib2 2026-05-03 09:00 459K
20260503T06Z_MSC_RDPS_LiftedIndex-MU-VT_IsbL-0500_RLatLon0.09_PT055H.grib2 2026-05-03 09:00 2.4M
20260503T06Z_MSC_RDPS_NetLongwaveRadiationFlux-Accum_Sfc_RLatLon0.09_PT055H.grib2 2026-05-03 09:00 568K
20260503T06Z_MSC_RDPS_NetShortwaveRadiationFlux-Accum_Sfc_RLatLon0.09_PT055H.grib2 2026-05-03 09:00 577K
20260503T06Z_MSC_RDPS_PlanetaryBoundaryLayerHeight_Sfc_RLatLon0.09_PT055H.grib2 2026-05-03 09:00 1.0M
20260503T06Z_MSC_RDPS_Precip-Accum1h_Sfc_RLatLon0.09_PT055H.grib2 2026-05-03 09:00 1.4M
20260503T06Z_MSC_RDPS_Precip-Accum_Sfc_RLatLon0.09_PT055H.grib2 2026-05-03 09:00 2.1M
20260503T06Z_MSC_RDPS_PrecipRate_Sfc_RLatLon0.09_PT055H.grib2 2026-05-03 09:00 205K
20260503T06Z_MSC_RDPS_PrecipType-Instant_Sfc_RLatLon0.09_PT055H.grib2 2026-05-03 09:00 620K
20260503T06Z_MSC_RDPS_Pressure-Trend3h_Sfc_RLatLon0.09_PT055H.grib2 2026-05-03 09:00 1.2M
20260503T06Z_MSC_RDPS_Pressure_MSL_RLatLon0.09_PT055H.grib2 2026-05-03 09:00 330K
20260503T06Z_MSC_RDPS_Pressure_PVU-1.5_RLatLon0.09_PT055H.grib2 2026-05-03 09:00 2.5M
20260503T06Z_MSC_RDPS_Pressure_PVU-1_RLatLon0.09_PT055H.grib2 2026-05-03 09:00 2.4M
20260503T06Z_MSC_RDPS_Pressure_PVU-2_RLatLon0.09_PT055H.grib2 2026-05-03 09:00 2.4M
20260503T06Z_MSC_RDPS_Pressure_Sfc_RLatLon0.09_PT055H.grib2 2026-05-03 09:00 500K
20260503T06Z_MSC_RDPS_RadiativeTemp_Sfc_RLatLon0.09_PT055H.grib2 2026-05-03 09:00 302K
20260503T06Z_MSC_RDPS_Rain-Accum1h_Sfc_RLatLon0.09_PT055H.grib2 2026-05-03 09:00 713K
20260503T06Z_MSC_RDPS_Rain-Accum_Sfc_RLatLon0.09_PT055H.grib2 2026-05-03 09:00 1.7M
20260503T06Z_MSC_RDPS_RelativeHumidity_AGL-2m_RLatLon0.09_PT055H.grib2 2026-05-03 09:00 1.0M
20260503T06Z_MSC_RDPS_RelativeHumidity_IsbL-0010_RLatLon0.09_PT055H.grib2 2026-05-03 09:00 696K
20260503T06Z_MSC_RDPS_RelativeHumidity_IsbL-0020_RLatLon0.09_PT055H.grib2 2026-05-03 09:00 665K
20260503T06Z_MSC_RDPS_RelativeHumidity_IsbL-0030_RLatLon0.09_PT055H.grib2 2026-05-03 09:00 602K
20260503T06Z_MSC_RDPS_RelativeHumidity_IsbL-0050_RLatLon0.09_PT055H.grib2 2026-05-03 09:00 362K
20260503T06Z_MSC_RDPS_RelativeHumidity_IsbL-0100_RLatLon0.09_PT055H.grib2 2026-05-03 09:00 282K
20260503T06Z_MSC_RDPS_RelativeHumidity_IsbL-0150_RLatLon0.09_PT055H.grib2 2026-05-03 09:00 415K
20260503T06Z_MSC_RDPS_RelativeHumidity_IsbL-0175_RLatLon0.09_PT055H.grib2 2026-05-03 09:00 481K
20260503T06Z_MSC_RDPS_RelativeHumidity_IsbL-0200_RLatLon0.09_PT055H.grib2 2026-05-03 09:00 557K
20260503T06Z_MSC_RDPS_RelativeHumidity_IsbL-0225_RLatLon0.09_PT055H.grib2 2026-05-03 09:00 617K
20260503T06Z_MSC_RDPS_RelativeHumidity_IsbL-0250_RLatLon0.09_PT055H.grib2 2026-05-03 09:00 677K
20260503T06Z_MSC_RDPS_RelativeHumidity_IsbL-0275_RLatLon0.09_PT055H.grib2 2026-05-03 09:00 702K
20260503T06Z_MSC_RDPS_RelativeHumidity_IsbL-0300_RLatLon0.09_PT055H.grib2 2026-05-03 09:00 744K
20260503T06Z_MSC_RDPS_RelativeHumidity_IsbL-0350_RLatLon0.09_PT055H.grib2 2026-05-03 09:00 771K
20260503T06Z_MSC_RDPS_RelativeHumidity_IsbL-0400_RLatLon0.09_PT055H.grib2 2026-05-03 09:00 787K
20260503T06Z_MSC_RDPS_RelativeHumidity_IsbL-0450_RLatLon0.09_PT055H.grib2 2026-05-03 09:00 792K
20260503T06Z_MSC_RDPS_RelativeHumidity_IsbL-0500_RLatLon0.09_PT055H.grib2 2026-05-03 09:00 794K
20260503T06Z_MSC_RDPS_RelativeHumidity_IsbL-0550_RLatLon0.09_PT055H.grib2 2026-05-03 09:00 820K
20260503T06Z_MSC_RDPS_RelativeHumidity_IsbL-0600_RLatLon0.09_PT055H.grib2 2026-05-03 09:00 836K
20260503T06Z_MSC_RDPS_RelativeHumidity_IsbL-0650_RLatLon0.09_PT055H.grib2 2026-05-03 09:00 848K
20260503T06Z_MSC_RDPS_RelativeHumidity_IsbL-0700_RLatLon0.09_PT055H.grib2 2026-05-03 09:00 865K
20260503T06Z_MSC_RDPS_RelativeHumidity_IsbL-0750_RLatLon0.09_PT055H.grib2 2026-05-03 09:00 909K
20260503T06Z_MSC_RDPS_RelativeHumidity_IsbL-0800_RLatLon0.09_PT055H.grib2 2026-05-03 09:00 1.0M
20260503T06Z_MSC_RDPS_RelativeHumidity_IsbL-0850_RLatLon0.09_PT055H.grib2 2026-05-03 09:00 1.0M
20260503T06Z_MSC_RDPS_RelativeHumidity_IsbL-0875_RLatLon0.09_PT055H.grib2 2026-05-03 09:00 1.1M
20260503T06Z_MSC_RDPS_RelativeHumidity_IsbL-0900_RLatLon0.09_PT055H.grib2 2026-05-03 09:00 1.1M
20260503T06Z_MSC_RDPS_RelativeHumidity_IsbL-0925_RLatLon0.09_PT055H.grib2 2026-05-03 09:00 1.1M
20260503T06Z_MSC_RDPS_RelativeHumidity_IsbL-0950_RLatLon0.09_PT055H.grib2 2026-05-03 09:00 1.1M
20260503T06Z_MSC_RDPS_RelativeHumidity_IsbL-0970_RLatLon0.09_PT055H.grib2 2026-05-03 09:00 1.1M
20260503T06Z_MSC_RDPS_RelativeHumidity_IsbL-0985_RLatLon0.09_PT055H.grib2 2026-05-03 09:00 1.1M
20260503T06Z_MSC_RDPS_RelativeHumidity_IsbL-1000_RLatLon0.09_PT055H.grib2 2026-05-03 09:00 1.0M
20260503T06Z_MSC_RDPS_RelativeHumidity_IsbL-1015_RLatLon0.09_PT055H.grib2 2026-05-03 09:00 1.0M
20260503T06Z_MSC_RDPS_Runoff-Accum_Sfc_RLatLon0.09_PT055H.grib2 2026-05-03 09:00 56K
20260503T06Z_MSC_RDPS_SWEATIndex_Sfc_RLatLon0.09_PT055H.grib2 2026-05-03 09:00 2.4M
20260503T06Z_MSC_RDPS_SeeingIndex_EAtm_RLatLon0.09_PT055H.grib2 2026-05-03 09:00 1.0M
20260503T06Z_MSC_RDPS_SensibleHeatNetFlux_Sfc_RLatLon0.09_PT055H.grib2 2026-05-03 09:00 330K
20260503T06Z_MSC_RDPS_ShowalterIndex_IsbL-0500_RLatLon0.09_PT055H.grib2 2026-05-03 09:00 2.6M
20260503T06Z_MSC_RDPS_SkyTransparencyIndex_EAtm_RLatLon0.09_PT055H.grib2 2026-05-03 09:00 707K
20260503T06Z_MSC_RDPS_Snow-Accum1h_Sfc_RLatLon0.09_PT055H.grib2 2026-05-03 09:00 483K
20260503T06Z_MSC_RDPS_Snow-Accum_Sfc_RLatLon0.09_PT055H.grib2 2026-05-03 09:00 754K
20260503T06Z_MSC_RDPS_SnowDensity_Sfc_RLatLon0.09_PT055H.grib2 2026-05-03 09:00 175K
20260503T06Z_MSC_RDPS_SnowDepth_Sfc_RLatLon0.09_PT055H.grib2 2026-05-03 09:00 658K
20260503T06Z_MSC_RDPS_SoilTemp_DBS-0to10cm_RLatLon0.09_PT055H.grib2 2026-05-03 09:00 238K
20260503T06Z_MSC_RDPS_SoilTemp_Sfc_RLatLon0.09_PT055H.grib2 2026-05-03 09:00 274K
20260503T06Z_MSC_RDPS_SoilVolumetricIceContent_Sfc_RLatLon0.09_PT055H.grib2 2026-05-03 09:00 154K
20260503T06Z_MSC_RDPS_SoilVolumetricWaterContent_DBS-0to10cm_RLatLon0.09_PT055H.grib2 2026-05-03 09:00 277K
20260503T06Z_MSC_RDPS_SoilVolumetricWaterContent_DBS-0to1cm_RLatLon0.09_PT055H.grib2 2026-05-03 09:00 342K
20260503T06Z_MSC_RDPS_SpecificHumidity_AGL-120m_RLatLon0.09_PT055H.grib2 2026-05-03 09:00 499K
20260503T06Z_MSC_RDPS_SpecificHumidity_AGL-2m_RLatLon0.09_PT055H.grib2 2026-05-03 09:00 671K
20260503T06Z_MSC_RDPS_SpecificHumidity_AGL-40m_RLatLon0.09_PT055H.grib2 2026-05-03 09:00 507K
20260503T06Z_MSC_RDPS_SpecificHumidity_AGL-80m_RLatLon0.09_PT055H.grib2 2026-05-03 09:00 502K
20260503T06Z_MSC_RDPS_SpecificHumidity_IsbL-0001_RLatLon0.09_PT055H.grib2 2026-05-03 09:00 406K
20260503T06Z_MSC_RDPS_SpecificHumidity_IsbL-0005_RLatLon0.09_PT055H.grib2 2026-05-03 09:00 368K
20260503T06Z_MSC_RDPS_SpecificHumidity_IsbL-0010_RLatLon0.09_PT055H.grib2 2026-05-03 09:00 400K
20260503T06Z_MSC_RDPS_SpecificHumidity_IsbL-0020_RLatLon0.09_PT055H.grib2 2026-05-03 09:00 381K
20260503T06Z_MSC_RDPS_SpecificHumidity_IsbL-0030_RLatLon0.09_PT055H.grib2 2026-05-03 09:00 373K
20260503T06Z_MSC_RDPS_SpecificHumidity_IsbL-0050_RLatLon0.09_PT055H.grib2 2026-05-03 09:00 452K
20260503T06Z_MSC_RDPS_SpecificHumidity_IsbL-0100_RLatLon0.09_PT055H.grib2 2026-05-03 09:00 530K
20260503T06Z_MSC_RDPS_SpecificHumidity_IsbL-0150_RLatLon0.09_PT055H.grib2 2026-05-03 09:00 450K
20260503T06Z_MSC_RDPS_SpecificHumidity_IsbL-0175_RLatLon0.09_PT055H.grib2 2026-05-03 09:00 441K
20260503T06Z_MSC_RDPS_SpecificHumidity_IsbL-0200_RLatLon0.09_PT055H.grib2 2026-05-03 09:00 457K
20260503T06Z_MSC_RDPS_SpecificHumidity_IsbL-0225_RLatLon0.09_PT055H.grib2 2026-05-03 09:00 454K
20260503T06Z_MSC_RDPS_SpecificHumidity_IsbL-0250_RLatLon0.09_PT055H.grib2 2026-05-03 09:00 556K
20260503T06Z_MSC_RDPS_SpecificHumidity_IsbL-0275_RLatLon0.09_PT055H.grib2 2026-05-03 09:00 473K
20260503T06Z_MSC_RDPS_SpecificHumidity_IsbL-0300_RLatLon0.09_PT055H.grib2 2026-05-03 09:00 545K
20260503T06Z_MSC_RDPS_SpecificHumidity_IsbL-0350_RLatLon0.09_PT055H.grib2 2026-05-03 09:00 542K
20260503T06Z_MSC_RDPS_SpecificHumidity_IsbL-0400_RLatLon0.09_PT055H.grib2 2026-05-03 09:00 524K
20260503T06Z_MSC_RDPS_SpecificHumidity_IsbL-0450_RLatLon0.09_PT055H.grib2 2026-05-03 09:00 573K
20260503T06Z_MSC_RDPS_SpecificHumidity_IsbL-0500_RLatLon0.09_PT055H.grib2 2026-05-03 09:00 505K
20260503T06Z_MSC_RDPS_SpecificHumidity_IsbL-0550_RLatLon0.09_PT055H.grib2 2026-05-03 09:00 559K
20260503T06Z_MSC_RDPS_SpecificHumidity_IsbL-0600_RLatLon0.09_PT055H.grib2 2026-05-03 09:00 623K
20260503T06Z_MSC_RDPS_SpecificHumidity_IsbL-0650_RLatLon0.09_PT055H.grib2 2026-05-03 09:00 540K
20260503T06Z_MSC_RDPS_SpecificHumidity_IsbL-0700_RLatLon0.09_PT055H.grib2 2026-05-03 09:00 583K
20260503T06Z_MSC_RDPS_SpecificHumidity_IsbL-0750_RLatLon0.09_PT055H.grib2 2026-05-03 09:00 640K
20260503T06Z_MSC_RDPS_SpecificHumidity_IsbL-0800_RLatLon0.09_PT055H.grib2 2026-05-03 09:00 716K
20260503T06Z_MSC_RDPS_SpecificHumidity_IsbL-0850_RLatLon0.09_PT055H.grib2 2026-05-03 09:00 807K
20260503T06Z_MSC_RDPS_SpecificHumidity_IsbL-0875_RLatLon0.09_PT055H.grib2 2026-05-03 09:00 835K
20260503T06Z_MSC_RDPS_SpecificHumidity_IsbL-0900_RLatLon0.09_PT055H.grib2 2026-05-03 09:00 846K
20260503T06Z_MSC_RDPS_SpecificHumidity_IsbL-0925_RLatLon0.09_PT055H.grib2 2026-05-03 09:00 845K
20260503T06Z_MSC_RDPS_SpecificHumidity_IsbL-0950_RLatLon0.09_PT055H.grib2 2026-05-03 09:00 704K
20260503T06Z_MSC_RDPS_SpecificHumidity_IsbL-0970_RLatLon0.09_PT055H.grib2 2026-05-03 09:00 702K
20260503T06Z_MSC_RDPS_SpecificHumidity_IsbL-0985_RLatLon0.09_PT055H.grib2 2026-05-03 09:00 697K
20260503T06Z_MSC_RDPS_SpecificHumidity_IsbL-1000_RLatLon0.09_PT055H.grib2 2026-05-03 09:00 694K
20260503T06Z_MSC_RDPS_SpecificHumidity_IsbL-1015_RLatLon0.09_PT055H.grib2 2026-05-03 09:00 686K
20260503T06Z_MSC_RDPS_SpecificHumidity_Sfc_RLatLon0.09_PT055H.grib2 2026-05-03 09:00 304K
20260503T06Z_MSC_RDPS_StormRelativeHelicity_EtaL-10000_RLatLon0.09_PT055H.grib2 2026-05-03 09:00 1.1M
20260503T06Z_MSC_RDPS_StormSeverityIndex_EtaL-10000_RLatLon0.09_PT055H.grib2 2026-05-03 09:00 1.2M
20260503T06Z_MSC_RDPS_Thickness_IsbL-0850to0700_RLatLon0.09_PT055H.grib2 2026-05-03 09:00 179K
20260503T06Z_MSC_RDPS_Thickness_IsbL-1000to0500_RLatLon0.09_PT055H.grib2 2026-05-03 09:00 199K
20260503T06Z_MSC_RDPS_Thickness_IsbL-1000to0850_RLatLon0.09_PT055H.grib2 2026-05-03 09:00 263K
20260503T06Z_MSC_RDPS_TotalCloudCover_Sfc_RLatLon0.09_PT055H.grib2 2026-05-03 09:00 677K
20260503T06Z_MSC_RDPS_TotalTotalsIndex_Sfc_RLatLon0.09_PT055H.grib2 2026-05-03 09:00 2.4M
20260503T06Z_MSC_RDPS_UVIndex-ClearSky_Sfc_RLatLon0.09_PT055H.grib2 2026-05-03 09:00 194K
20260503T06Z_MSC_RDPS_UVIndex_Sfc_RLatLon0.09_PT055H.grib2 2026-05-03 09:00 433K
20260503T06Z_MSC_RDPS_UpwardLongwaveRadiationFlux_NTAtm_RLatLon0.09_PT055H.grib2 2026-05-03 09:00 491K
20260503T06Z_MSC_RDPS_UpwardShortwaveRadiationFlux_NTAtm_RLatLon0.09_PT055H.grib2 2026-05-03 09:00 371K
20260503T06Z_MSC_RDPS_VerticalVelocity_IsbL-0250_RLatLon0.09_PT055H.grib2 2026-05-03 09:00 560K
20260503T06Z_MSC_RDPS_VerticalVelocity_IsbL-0500_RLatLon0.09_PT055H.grib2 2026-05-03 09:00 556K
20260503T06Z_MSC_RDPS_VerticalVelocity_IsbL-0700_RLatLon0.09_PT055H.grib2 2026-05-03 09:00 604K
20260503T06Z_MSC_RDPS_VerticalVelocity_IsbL-0850_RLatLon0.09_PT055H.grib2 2026-05-03 09:00 712K
20260503T06Z_MSC_RDPS_VerticalWindShear_EtaL-6500_RLatLon0.09_PT055H.grib2 2026-05-03 09:00 1.2M
20260503T06Z_MSC_RDPS_WindChill_Sfc_RLatLon0.09_PT055H.grib2 2026-05-03 09:00 1.2M
20260503T06Z_MSC_RDPS_WindDir_AGL-10m_RLatLon0.09_PT055H.grib2 2026-05-03 09:00 1.0M
20260503T06Z_MSC_RDPS_WindDir_AGL-120m_RLatLon0.09_PT055H.grib2 2026-05-03 09:00 609K
20260503T06Z_MSC_RDPS_WindDir_AGL-40m_RLatLon0.09_PT055H.grib2 2026-05-03 09:00 638K
20260503T06Z_MSC_RDPS_WindDir_AGL-80m_RLatLon0.09_PT055H.grib2 2026-05-03 09:00 620K
20260503T06Z_MSC_RDPS_WindDir_IsbL-0001_RLatLon0.09_PT055H.grib2 2026-05-03 09:00 317K
20260503T06Z_MSC_RDPS_WindDir_IsbL-0005_RLatLon0.09_PT055H.grib2 2026-05-03 09:00 392K
20260503T06Z_MSC_RDPS_WindDir_IsbL-0010_RLatLon0.09_PT055H.grib2 2026-05-03 09:00 405K
20260503T06Z_MSC_RDPS_WindDir_IsbL-0020_RLatLon0.09_PT055H.grib2 2026-05-03 09:00 419K
20260503T06Z_MSC_RDPS_WindDir_IsbL-0030_RLatLon0.09_PT055H.grib2 2026-05-03 09:00 420K
20260503T06Z_MSC_RDPS_WindDir_IsbL-0050_RLatLon0.09_PT055H.grib2 2026-05-03 09:00 428K
20260503T06Z_MSC_RDPS_WindDir_IsbL-0100_RLatLon0.09_PT055H.grib2 2026-05-03 09:00 426K
20260503T06Z_MSC_RDPS_WindDir_IsbL-0150_RLatLon0.09_PT055H.grib2 2026-05-03 09:00 406K
20260503T06Z_MSC_RDPS_WindDir_IsbL-0175_RLatLon0.09_PT055H.grib2 2026-05-03 09:00 432K
20260503T06Z_MSC_RDPS_WindDir_IsbL-0200_RLatLon0.09_PT055H.grib2 2026-05-03 09:00 451K
20260503T06Z_MSC_RDPS_WindDir_IsbL-0225_RLatLon0.09_PT055H.grib2 2026-05-03 09:00 450K
20260503T06Z_MSC_RDPS_WindDir_IsbL-0250_RLatLon0.09_PT055H.grib2 2026-05-03 09:00 451K
20260503T06Z_MSC_RDPS_WindDir_IsbL-0275_RLatLon0.09_PT055H.grib2 2026-05-03 09:00 477K
20260503T06Z_MSC_RDPS_WindDir_IsbL-0300_RLatLon0.09_PT055H.grib2 2026-05-03 09:00 475K
20260503T06Z_MSC_RDPS_WindDir_IsbL-0350_RLatLon0.09_PT055H.grib2 2026-05-03 09:00 496K
20260503T06Z_MSC_RDPS_WindDir_IsbL-0400_RLatLon0.09_PT055H.grib2 2026-05-03 09:00 513K
20260503T06Z_MSC_RDPS_WindDir_IsbL-0450_RLatLon0.09_PT055H.grib2 2026-05-03 09:00 532K
20260503T06Z_MSC_RDPS_WindDir_IsbL-0500_RLatLon0.09_PT055H.grib2 2026-05-03 09:00 537K
20260503T06Z_MSC_RDPS_WindDir_IsbL-0550_RLatLon0.09_PT055H.grib2 2026-05-03 09:00 550K
20260503T06Z_MSC_RDPS_WindDir_IsbL-0600_RLatLon0.09_PT055H.grib2 2026-05-03 09:00 573K
20260503T06Z_MSC_RDPS_WindDir_IsbL-0650_RLatLon0.09_PT055H.grib2 2026-05-03 09:00 615K
20260503T06Z_MSC_RDPS_WindDir_IsbL-0700_RLatLon0.09_PT055H.grib2 2026-05-03 09:00 659K
20260503T06Z_MSC_RDPS_WindDir_IsbL-0750_RLatLon0.09_PT055H.grib2 2026-05-03 09:00 709K
20260503T06Z_MSC_RDPS_WindDir_IsbL-0800_RLatLon0.09_PT055H.grib2 2026-05-03 09:00 779K
20260503T06Z_MSC_RDPS_WindDir_IsbL-0850_RLatLon0.09_PT055H.grib2 2026-05-03 09:00 866K
20260503T06Z_MSC_RDPS_WindDir_IsbL-0875_RLatLon0.09_PT055H.grib2 2026-05-03 09:00 901K
20260503T06Z_MSC_RDPS_WindDir_IsbL-0900_RLatLon0.09_PT055H.grib2 2026-05-03 09:00 916K
20260503T06Z_MSC_RDPS_WindDir_IsbL-0925_RLatLon0.09_PT055H.grib2 2026-05-03 09:00 921K
20260503T06Z_MSC_RDPS_WindDir_IsbL-0950_RLatLon0.09_PT055H.grib2 2026-05-03 09:00 916K
20260503T06Z_MSC_RDPS_WindDir_IsbL-0970_RLatLon0.09_PT055H.grib2 2026-05-03 09:00 921K
20260503T06Z_MSC_RDPS_WindDir_IsbL-0985_RLatLon0.09_PT055H.grib2 2026-05-03 09:00 929K
20260503T06Z_MSC_RDPS_WindDir_IsbL-1000_RLatLon0.09_PT055H.grib2 2026-05-03 09:00 944K
20260503T06Z_MSC_RDPS_WindDir_IsbL-1015_RLatLon0.09_PT055H.grib2 2026-05-03 09:00 962K
20260503T06Z_MSC_RDPS_WindGust-Max_AGL-10m_RLatLon0.09_PT055H.grib2 2026-05-03 09:00 963K
20260503T06Z_MSC_RDPS_WindGust-Min_AGL-10m_RLatLon0.09_PT055H.grib2 2026-05-03 09:00 1.0M
20260503T06Z_MSC_RDPS_WindGust_AGL-10m_RLatLon0.09_PT055H.grib2 2026-05-03 09:00 1.0M
20260503T06Z_MSC_RDPS_WindSpeed_AGL-10m_RLatLon0.09_PT055H.grib2 2026-05-03 09:00 862K
20260503T06Z_MSC_RDPS_WindSpeed_AGL-120m_RLatLon0.09_PT055H.grib2 2026-05-03 09:00 555K
20260503T06Z_MSC_RDPS_WindSpeed_AGL-40m_RLatLon0.09_PT055H.grib2 2026-05-03 09:00 558K
20260503T06Z_MSC_RDPS_WindSpeed_AGL-80m_RLatLon0.09_PT055H.grib2 2026-05-03 09:00 556K
20260503T06Z_MSC_RDPS_WindSpeed_IsbL-0001_RLatLon0.09_PT055H.grib2 2026-05-03 09:00 339K
20260503T06Z_MSC_RDPS_WindSpeed_IsbL-0005_RLatLon0.09_PT055H.grib2 2026-05-03 09:00 387K
20260503T06Z_MSC_RDPS_WindSpeed_IsbL-0010_RLatLon0.09_PT055H.grib2 2026-05-03 09:00 370K
20260503T06Z_MSC_RDPS_WindSpeed_IsbL-0020_RLatLon0.09_PT055H.grib2 2026-05-03 09:00 424K
20260503T06Z_MSC_RDPS_WindSpeed_IsbL-0030_RLatLon0.09_PT055H.grib2 2026-05-03 09:00 325K
20260503T06Z_MSC_RDPS_WindSpeed_IsbL-0050_RLatLon0.09_PT055H.grib2 2026-05-03 09:00 355K
20260503T06Z_MSC_RDPS_WindSpeed_IsbL-0100_RLatLon0.09_PT055H.grib2 2026-05-03 09:00 482K
20260503T06Z_MSC_RDPS_WindSpeed_IsbL-0150_RLatLon0.09_PT055H.grib2 2026-05-03 09:00 380K
20260503T06Z_MSC_RDPS_WindSpeed_IsbL-0175_RLatLon0.09_PT055H.grib2 2026-05-03 09:00 428K
20260503T06Z_MSC_RDPS_WindSpeed_IsbL-0200_RLatLon0.09_PT055H.grib2 2026-05-03 09:00 440K
20260503T06Z_MSC_RDPS_WindSpeed_IsbL-0225_RLatLon0.09_PT055H.grib2 2026-05-03 09:00 444K
20260503T06Z_MSC_RDPS_WindSpeed_IsbL-0250_RLatLon0.09_PT055H.grib2 2026-05-03 09:00 447K
20260503T06Z_MSC_RDPS_WindSpeed_IsbL-0275_RLatLon0.09_PT055H.grib2 2026-05-03 09:00 465K
20260503T06Z_MSC_RDPS_WindSpeed_IsbL-0300_RLatLon0.09_PT055H.grib2 2026-05-03 09:00 463K
20260503T06Z_MSC_RDPS_WindSpeed_IsbL-0350_RLatLon0.09_PT055H.grib2 2026-05-03 09:00 475K
20260503T06Z_MSC_RDPS_WindSpeed_IsbL-0400_RLatLon0.09_PT055H.grib2 2026-05-03 09:00 479K
20260503T06Z_MSC_RDPS_WindSpeed_IsbL-0450_RLatLon0.09_PT055H.grib2 2026-05-03 09:00 465K
20260503T06Z_MSC_RDPS_WindSpeed_IsbL-0500_RLatLon0.09_PT055H.grib2 2026-05-03 09:00 465K
20260503T06Z_MSC_RDPS_WindSpeed_IsbL-0550_RLatLon0.09_PT055H.grib2 2026-05-03 09:00 464K
20260503T06Z_MSC_RDPS_WindSpeed_IsbL-0600_RLatLon0.09_PT055H.grib2 2026-05-03 09:00 589K
20260503T06Z_MSC_RDPS_WindSpeed_IsbL-0650_RLatLon0.09_PT055H.grib2 2026-05-03 09:00 610K
20260503T06Z_MSC_RDPS_WindSpeed_IsbL-0700_RLatLon0.09_PT055H.grib2 2026-05-03 09:00 631K
20260503T06Z_MSC_RDPS_WindSpeed_IsbL-0750_RLatLon0.09_PT055H.grib2 2026-05-03 09:00 662K
20260503T06Z_MSC_RDPS_WindSpeed_IsbL-0800_RLatLon0.09_PT055H.grib2 2026-05-03 09:00 762K
20260503T06Z_MSC_RDPS_WindSpeed_IsbL-0850_RLatLon0.09_PT055H.grib2 2026-05-03 09:00 834K
20260503T06Z_MSC_RDPS_WindSpeed_IsbL-0875_RLatLon0.09_PT055H.grib2 2026-05-03 09:00 861K
20260503T06Z_MSC_RDPS_WindSpeed_IsbL-0900_RLatLon0.09_PT055H.grib2 2026-05-03 09:00 877K
20260503T06Z_MSC_RDPS_WindSpeed_IsbL-0925_RLatLon0.09_PT055H.grib2 2026-05-03 09:00 888K
20260503T06Z_MSC_RDPS_WindSpeed_IsbL-0950_RLatLon0.09_PT055H.grib2 2026-05-03 09:00 886K
20260503T06Z_MSC_RDPS_WindSpeed_IsbL-0970_RLatLon0.09_PT055H.grib2 2026-05-03 09:00 882K
20260503T06Z_MSC_RDPS_WindSpeed_IsbL-0985_RLatLon0.09_PT055H.grib2 2026-05-03 09:00 876K
20260503T06Z_MSC_RDPS_WindSpeed_IsbL-1000_RLatLon0.09_PT055H.grib2 2026-05-03 09:00 869K
20260503T06Z_MSC_RDPS_WindSpeed_IsbL-1015_RLatLon0.09_PT055H.grib2 2026-05-03 09:00 861K
20260503T06Z_MSC_RDPS_WindU_AGL-10m_RLatLon0.09_PT055H.grib2 2026-05-03 09:00 441K
20260503T06Z_MSC_RDPS_WindU_AGL-120m_RLatLon0.09_PT055H.grib2 2026-05-03 09:00 429K
20260503T06Z_MSC_RDPS_WindU_AGL-40m_RLatLon0.09_PT055H.grib2 2026-05-03 09:00 550K
20260503T06Z_MSC_RDPS_WindU_AGL-80m_RLatLon0.09_PT055H.grib2 2026-05-03 09:00 549K
20260503T06Z_MSC_RDPS_WindU_IsbL-0001_RLatLon0.09_PT055H.grib2 2026-05-03 09:00 247K
20260503T06Z_MSC_RDPS_WindU_IsbL-0005_RLatLon0.09_PT055H.grib2 2026-05-03 09:00 285K
20260503T06Z_MSC_RDPS_WindU_IsbL-0010_RLatLon0.09_PT055H.grib2 2026-05-03 09:00 299K
20260503T06Z_MSC_RDPS_WindU_IsbL-0020_RLatLon0.09_PT055H.grib2 2026-05-03 09:00 316K
20260503T06Z_MSC_RDPS_WindU_IsbL-0030_RLatLon0.09_PT055H.grib2 2026-05-03 09:00 316K
20260503T06Z_MSC_RDPS_WindU_IsbL-0050_RLatLon0.09_PT055H.grib2 2026-05-03 09:00 383K
20260503T06Z_MSC_RDPS_WindU_IsbL-0100_RLatLon0.09_PT055H.grib2 2026-05-03 09:00 338K
20260503T06Z_MSC_RDPS_WindU_IsbL-0150_RLatLon0.09_PT055H.grib2 2026-05-03 09:00 396K
20260503T06Z_MSC_RDPS_WindU_IsbL-0175_RLatLon0.09_PT055H.grib2 2026-05-03 09:00 325K
20260503T06Z_MSC_RDPS_WindU_IsbL-0200_RLatLon0.09_PT055H.grib2 2026-05-03 09:00 336K
20260503T06Z_MSC_RDPS_WindU_IsbL-0225_RLatLon0.09_PT055H.grib2 2026-05-03 09:00 338K
20260503T06Z_MSC_RDPS_WindU_IsbL-0250_RLatLon0.09_PT055H.grib2 2026-05-03 09:00 339K
20260503T06Z_MSC_RDPS_WindU_IsbL-0275_RLatLon0.09_PT055H.grib2 2026-05-03 09:00 353K
20260503T06Z_MSC_RDPS_WindU_IsbL-0300_RLatLon0.09_PT055H.grib2 2026-05-03 09:00 352K
20260503T06Z_MSC_RDPS_WindU_IsbL-0350_RLatLon0.09_PT055H.grib2 2026-05-03 09:00 360K
20260503T06Z_MSC_RDPS_WindU_IsbL-0400_RLatLon0.09_PT055H.grib2 2026-05-03 09:00 363K
20260503T06Z_MSC_RDPS_WindU_IsbL-0450_RLatLon0.09_PT055H.grib2 2026-05-03 09:00 469K
20260503T06Z_MSC_RDPS_WindU_IsbL-0500_RLatLon0.09_PT055H.grib2 2026-05-03 09:00 471K
20260503T06Z_MSC_RDPS_WindU_IsbL-0550_RLatLon0.09_PT055H.grib2 2026-05-03 09:00 470K
20260503T06Z_MSC_RDPS_WindU_IsbL-0600_RLatLon0.09_PT055H.grib2 2026-05-03 09:00 477K
20260503T06Z_MSC_RDPS_WindU_IsbL-0650_RLatLon0.09_PT055H.grib2 2026-05-03 09:00 497K
20260503T06Z_MSC_RDPS_WindU_IsbL-0700_RLatLon0.09_PT055H.grib2 2026-05-03 09:00 501K
20260503T06Z_MSC_RDPS_WindU_IsbL-0750_RLatLon0.09_PT055H.grib2 2026-05-03 09:00 529K
20260503T06Z_MSC_RDPS_WindU_IsbL-0800_RLatLon0.09_PT055H.grib2 2026-05-03 09:00 578K
20260503T06Z_MSC_RDPS_WindU_IsbL-0850_RLatLon0.09_PT055H.grib2 2026-05-03 09:00 640K
20260503T06Z_MSC_RDPS_WindU_IsbL-0875_RLatLon0.09_PT055H.grib2 2026-05-03 09:00 662K
20260503T06Z_MSC_RDPS_WindU_IsbL-0900_RLatLon0.09_PT055H.grib2 2026-05-03 09:00 680K
20260503T06Z_MSC_RDPS_WindU_IsbL-0925_RLatLon0.09_PT055H.grib2 2026-05-03 09:00 685K
20260503T06Z_MSC_RDPS_WindU_IsbL-0950_RLatLon0.09_PT055H.grib2 2026-05-03 09:00 675K
20260503T06Z_MSC_RDPS_WindU_IsbL-0970_RLatLon0.09_PT055H.grib2 2026-05-03 09:00 669K
20260503T06Z_MSC_RDPS_WindU_IsbL-0985_RLatLon0.09_PT055H.grib2 2026-05-03 09:00 805K
20260503T06Z_MSC_RDPS_WindU_IsbL-1000_RLatLon0.09_PT055H.grib2 2026-05-03 09:00 801K
20260503T06Z_MSC_RDPS_WindU_IsbL-1015_RLatLon0.09_PT055H.grib2 2026-05-03 09:00 797K
20260503T06Z_MSC_RDPS_WindV_AGL-10m_RLatLon0.09_PT055H.grib2 2026-05-03 09:00 443K
20260503T06Z_MSC_RDPS_WindV_AGL-120m_RLatLon0.09_PT055H.grib2 2026-05-03 09:00 430K
20260503T06Z_MSC_RDPS_WindV_AGL-40m_RLatLon0.09_PT055H.grib2 2026-05-03 09:00 551K
20260503T06Z_MSC_RDPS_WindV_AGL-80m_RLatLon0.09_PT055H.grib2 2026-05-03 09:00 549K
20260503T06Z_MSC_RDPS_WindV_IsbL-0001_RLatLon0.09_PT055H.grib2 2026-05-03 09:00 250K
20260503T06Z_MSC_RDPS_WindV_IsbL-0005_RLatLon0.09_PT055H.grib2 2026-05-03 09:00 291K
20260503T06Z_MSC_RDPS_WindV_IsbL-0010_RLatLon0.09_PT055H.grib2 2026-05-03 09:00 303K
20260503T06Z_MSC_RDPS_WindV_IsbL-0020_RLatLon0.09_PT055H.grib2 2026-05-03 09:00 320K
20260503T06Z_MSC_RDPS_WindV_IsbL-0030_RLatLon0.09_PT055H.grib2 2026-05-03 09:00 356K
20260503T06Z_MSC_RDPS_WindV_IsbL-0050_RLatLon0.09_PT055H.grib2 2026-05-03 09:00 349K
20260503T06Z_MSC_RDPS_WindV_IsbL-0100_RLatLon0.09_PT055H.grib2 2026-05-03 09:00 337K
20260503T06Z_MSC_RDPS_WindV_IsbL-0150_RLatLon0.09_PT055H.grib2 2026-05-03 09:00 394K
20260503T06Z_MSC_RDPS_WindV_IsbL-0175_RLatLon0.09_PT055H.grib2 2026-05-03 09:00 323K
20260503T06Z_MSC_RDPS_WindV_IsbL-0200_RLatLon0.09_PT055H.grib2 2026-05-03 09:00 334K
20260503T06Z_MSC_RDPS_WindV_IsbL-0225_RLatLon0.09_PT055H.grib2 2026-05-03 09:00 363K
20260503T06Z_MSC_RDPS_WindV_IsbL-0250_RLatLon0.09_PT055H.grib2 2026-05-03 09:00 365K
20260503T06Z_MSC_RDPS_WindV_IsbL-0275_RLatLon0.09_PT055H.grib2 2026-05-03 09:00 378K
20260503T06Z_MSC_RDPS_WindV_IsbL-0300_RLatLon0.09_PT055H.grib2 2026-05-03 09:00 351K
20260503T06Z_MSC_RDPS_WindV_IsbL-0350_RLatLon0.09_PT055H.grib2 2026-05-03 09:00 358K
20260503T06Z_MSC_RDPS_WindV_IsbL-0400_RLatLon0.09_PT055H.grib2 2026-05-03 09:00 362K
20260503T06Z_MSC_RDPS_WindV_IsbL-0450_RLatLon0.09_PT055H.grib2 2026-05-03 09:00 366K
20260503T06Z_MSC_RDPS_WindV_IsbL-0500_RLatLon0.09_PT055H.grib2 2026-05-03 09:00 470K
20260503T06Z_MSC_RDPS_WindV_IsbL-0550_RLatLon0.09_PT055H.grib2 2026-05-03 09:00 469K
20260503T06Z_MSC_RDPS_WindV_IsbL-0600_RLatLon0.09_PT055H.grib2 2026-05-03 09:00 476K
20260503T06Z_MSC_RDPS_WindV_IsbL-0650_RLatLon0.09_PT055H.grib2 2026-05-03 09:00 493K
20260503T06Z_MSC_RDPS_WindV_IsbL-0700_RLatLon0.09_PT055H.grib2 2026-05-03 09:00 497K
20260503T06Z_MSC_RDPS_WindV_IsbL-0750_RLatLon0.09_PT055H.grib2 2026-05-03 09:00 537K
20260503T06Z_MSC_RDPS_WindV_IsbL-0800_RLatLon0.09_PT055H.grib2 2026-05-03 09:00 585K
20260503T06Z_MSC_RDPS_WindV_IsbL-0850_RLatLon0.09_PT055H.grib2 2026-05-03 09:00 634K
20260503T06Z_MSC_RDPS_WindV_IsbL-0875_RLatLon0.09_PT055H.grib2 2026-05-03 09:00 658K
20260503T06Z_MSC_RDPS_WindV_IsbL-0900_RLatLon0.09_PT055H.grib2 2026-05-03 09:00 672K
20260503T06Z_MSC_RDPS_WindV_IsbL-0925_RLatLon0.09_PT055H.grib2 2026-05-03 09:00 678K
20260503T06Z_MSC_RDPS_WindV_IsbL-0950_RLatLon0.09_PT055H.grib2 2026-05-03 09:00 674K
20260503T06Z_MSC_RDPS_WindV_IsbL-0970_RLatLon0.09_PT055H.grib2 2026-05-03 09:00 671K
20260503T06Z_MSC_RDPS_WindV_IsbL-0985_RLatLon0.09_PT055H.grib2 2026-05-03 09:00 667K
20260503T06Z_MSC_RDPS_WindV_IsbL-1000_RLatLon0.09_PT055H.grib2 2026-05-03 09:00 803K
20260503T06Z_MSC_RDPS_WindV_IsbL-1015_RLatLon0.09_PT055H.grib2 2026-05-03 09:00 798K